Regional Weather Roundup
Issued by NWS Wakefield, VA

Home | Current Version | Previous Version | Graphics & Text | Print | Product List | Glossary On
Versions: 1 2 3 4 5 6 7 8 9 10 11 12 13 14 15 16 17 18 19 20 21 22 23 24 25 26 27 28 29 30 31 32 33 34 35 36 37 38 39 40 41 42 43 44 45 46 47 48 49 50
000
ASUS41 KAKQ 270215
RWRAKQ

REGIONAL WEATHER ROUNDUP
NATIONAL WEATHER SERVICE WAKEFIELD VA
1000 PM EDT TUE MAY 26 2015

Note: "fair" indicates few or no clouds below 12,000 feet with no
significant weather and/or obstructions to visibility. * = Denotes
station may not report precipitation (e.g., rain,snow,etc.),
thunder or fog.

VAZ042-051-052>054-056-270300-
NORTHERN VIRGINIA

CITY           SKY/WX    TMP DP  RH WIND       PRES   REMARKS
WASH NATIONAL  MOCLDY    79  70  74 S8        30.15R
DULLES         MOCLDY    78  67  68 S6        30.14R
FORT BELVOIR   PTCLDY    77  67  72 SE6       30.15R
QUANTICO       PTCLDY    78  70  76 S8        30.16R
FREDERICKSBRG* PTCLDY    79  68  70 S8        30.15S
STAFFORD*      PTCLDY    77  66  68 S3        30.20R
WARRENTON      PTCLDY    79  70  73 S3        30.15S
CULPEPER*      CLOUDY    77  68  74 S3        30.15S
MANASSAS*      MOCLDY    75  70  83 S7        30.14S
LEESBURG*      LGT RAIN  77  72  83 SW12      30.15R
WINCHESTER     CLOUDY    73  66  78 CALM      30.15R
FRONT ROYAL*   FAIR      70  68  94 S3        30.14S
LURAY*         FAIR      73  72  94 SW6       30.17R
$$

VAZ048-049-060>072-079>083-270300-
CENTRAL AND SOUTH CENTRAL VIRGINIA

CITY           SKY/WX    TMP DP  RH WIND       PRES   REMARKS
RICHMOND       PTCLDY    74  65  73 S7        30.18R
CHESTERFIELD*  NOT AVBL
PETERSBURG*    CLEAR     73  72  94 SE5       30.20R
HANOVER        CLEAR     76  66  71 S5        30.19R
TAPPAHANNOCK*  CLEAR     75  63  64 S3        30.19R
QUINTON*       FAIR      75  66  73 MISG      30.18S
CHARLOTTSVILLE MOCLDY    77  66  68 S10       30.16S
GORDONSVILLE*  FAIR      75  67  76 SW3       30.16R
ORANGE*        CLOUDY    79  68  69 S8        30.17S
LOUISA*        PTCLDY    75  66  73 SE3       30.16S
BUMPASS*       FAIR      72  67  82 CALM      30.17R
FARMVILLE*     CLEAR     75  66  75 S5        30.17R
CREWE*         FAIR      69  67  93 CALM      30.18S
FORT PICKETT*  NOT AVBL
CHASE CITY*    FAIR      76  72  86 S3        30.19R
CLARKSVILLE*   FAIR      77  68  73 S7        30.19R
SOUTH HILL*    PTCLDY    76  68  76 S5        30.25S
LAWRENCEVILLE* FAIR      75  68  78 S3        30.20R
EMPORIA*       CLEAR     77  68  73 SE8       30.22R
$$

VAZ088>098-270300-
SOUTHEAST VIRGINIA

CITY           SKY/WX    TMP DP  RH WIND       PRES   REMARKS
NORFOLK        PTCLDY    75  65  70 S14       30.24R
VIRGINIA BEACH MOCLDY    75  65  70 S10G18    30.24R
NORFOLK NAVAL  MOCLDY    80  65  59 S9G21     30.25R
WEST POINT*    CLEAR     78  66  65 S8        30.21R
SALUDA*        FAIR      73  68  84 SE9       30.19S
NEWPORT NEWS   PTCLDY    81  68  64 S16G22    30.22R
LANGLEY AFB    CLEAR     76  67  75 S16G22    30.22R
FORT EUSTIS    CLEAR     76  68  75 S10       30.20R
WILLIAMSBURG*  CLEAR     81  70  69 S12G17    30.22R
HR EXEC AP*    FAIR      73  64  73 S13G20    30.26R
FRANKLIN*      CLEAR     74  67  80 S9        30.24R
WAKEFIELD      CLEAR     77  68  73 S8        30.22R
$$

VAZ020-022-025-037-045-270300-
WEST CENTRAL AND SOUTHWEST VIRGINIA

CITY           SKY/WX    TMP DP  RH WIND       PRES   REMARKS
STAUNTON*      MOCLDY    69  67  94 CALM      30.21R
WAYNESBORO*    FAIR      67  67 100 CALM      30.20R
HOT SPRINGS VA PTCLDY    64  64  99 S12G17    30.29R
LYNCHBURG      CLEAR     74  65  73 SE5       30.20R
DANVILLE       CLEAR     77  64  64 S5        30.19R
SOUTH BOSTON*  FAIR      74  67  77 MISG      30.19R
MARTINSVILLE   PTCLDY    68  68 100 CALM      30.22R
ROANOKE        CLEAR     76  63  64 E5        30.21R
BLACKSBURG     PTCLDY    73  61  66 SE3       30.25S
DUBLIN*        MOCLDY    73  63  71 CALM      30.24R
MARION*        CLOUDY    73  62  68 SE8       30.26R
HILLSVILLE*    MOCLDY    70  61  73 S7        30.25S
RICHLANDS*     FAIR      72  61  68 S5        30.21R
WISE*          CLOUDY    73  55  53 S9        30.21S
ABINGDON*      CLOUDY    75  62  63 SW7       30.20R
$$

MDZ021>025-VAZ099-100-270300-
SOUTHERN MARYLAND AND THE DELMARVA PENINSULA

CITY           SKY/WX    TMP DP  RH WIND       PRES   REMARKS
PATUXENT RIVER PTCLDY    73  66  78 S6        30.18R
BAY BRIDGE APT   N/A    N/A N/A N/A S12       30.18R
LEONARDTOWN    CLEAR     72  64  78 SE6       30.20R
DOVER          PTCLDY    73  67  80 S10       30.17R
GEORGETOWN     CLEAR     70  64  81 S13       30.22R
EASTON         PTCLDY    76  68  77 S13       30.22R
CAMBRIDGE      MOCLDY    73  64  73 S9G16     30.19R
SALISBURY      CLEAR     69  64  84 S8        30.22R
OCEAN CITY     CLEAR     68  62  81 SW12G21   30.25R
WALLOPS ISLAND CLEAR     67  64  90 S15       30.24R
ACCOMACK*      CLEAR     72  68  88 S16G24    30.23R
$$

NCZ012>017-030>032-270300-
NORTH CENTRAL AND EASTERN NORTH CAROLINA

CITY           SKY/WX    TMP DP  RH WIND       PRES   REMARKS
ROANOKE RAPIDS FAIR      75  68  78 S8        30.21S
RALEIGH        MOCLDY    77  69  76 S9        30.22R
ELIZABETH CITY CLEAR     72  66  81 S8        30.28R
AHOSKIE*       CLEAR     74  67  79 S9        30.24R
EDENTON*       PTCLDY    73  66  78 S12       30.27R
CURRITUCK*     CLEAR     74  64  71 S7        30.27R
KILL DEVIL HLS CLEAR     73  65  74 S6        30.27R
MANTEO         CLEAR     73  66  77 S15       30.28R
CAPE HATTERAS  PTCLDY    73  63  70 S15       30.30R
TARBORO*       FAIR      76  68  76 S6        30.24S
GOLDSBORO      PTCLDY    74  69  84 S3        30.22S
WASHINGTON     MOCLDY    73  67  80 S8        30.27S
GREENVILLE     PTCLDY    73  70  88 S12       30.26R
NEW BERN       CLEAR     73  66  78 S7        30.28R
WILMINGTON     CLOUDY    76  69  79 S8        30.25F
$$

VAZ048-270300-
ELSEWHERE

CITY           SKY/WX    TMP DP  RH WIND       PRES   REMARKS
HARRISBURG PA  MOCLDY    78  68  71 SE7       30.12R
BALTIMORE      PTCLDY    73  65  75 S7        30.15R
ANNAPOLIS      CLEAR     73  65  75 S20G25    30.17R
ANDREWS AFB    PTCLDY    74  66  77 SE9       30.16R
PHILADELPHIA   MOCLDY    77  64  64 S14       30.18R
HENDERSON NC   PTCLDY    76  66  71 S9G17     30.22R
GREENSBORO     MOCLDY    77  64  64 S7        30.19S
ROCKY MOUNT    CLEAR     76  69  79 S7        30.23R
$$

VAZ100-270300-
MARINE

STATION/POSITION TIME  TEMP    WIND        PRES    WAVE   SWELL
                       AIR SEA DIR/SP/G            HT/PER HT/PER
                 (UTC) (F)     (DEG/KT/KT) (MB)    (FT/S) (FT/S)
BRANDYWINE LGT   0100   67 65  180/ 16/ 17 1022.6R
CAPE MAY NJ      0100   67 69  170/ 11/ 17 1022.4R
LEWES DE         0100   72 65  190/  8/ 13 1022.6R
15NM E FENWICK I 0150   65 61              1023.8R   3/ 4
OCEAN-CITY-INLET 0100   66 62  230/ 12/ 13 1023.5R
WACHAPREAGUE VA  0100   71 77  200/ 16/ 21 1023.4R
THOMAS POINT MD  0200   71 69  170/ 17/ 19 1022.1R
GOOSES REEF MD   0200   70 68  180/ 17/ 19 1022.6R   2/ 3
COVE POINT MD    0100   70     190/ 15/ 18 1022.4R
SOLOMONS ISLAND  0100      71                N/A
BISHOPS HEAD MD  0100   73 74  160/ 17/ 21 1021.8R
PINEY POINT MD   0100          170/ 11/ 12   N/A
CAMBRIDGE MD     0100   75 71  170/  6/ 12 1021.9R
LEWISETTA VA     0100   74 71              1021.6R
RAPPAHANNOCK LGT 0100          150/ 18/ 20 1023.2R
STINGRAY PT      0200   72 71  170/ 17/ 21 1022.4R   2/ 3
YORK RVR RNG VA  0100   77     180/ 15/ 18 1021.8R
YORKTOWN VA      0100   80 71  180/  8/ 10 1022.2R
JAMESTOWN VA     0200   77 75  190/ 14/ 17 1021.9R
DOMINION TERM VA 0100   77     180/ 15/ 18 1022.9R
KIPTOPEKE VA     0100      76  170/ 20/ 23   N/A
CHES BAY BRIDGE  0100   75 69  160/ 16/ 20 1023.0R
CAPE HENRY VA    0100   75     170/ 11/ 17 1022.3R
CHESAPEAKE LGHT  0100   68     180/ 25/ 27 1023.8R
WILLOUBY STN VA  0100   77     190/ 23/ 25 1023.6R
CAPE HENRY BUOY  0128      64                N/A     4/ 5
1ST LANDING BUOY 0200      70              1023.8R
CAPE CHARLES BUO 0126      66                N/A     4/ 5   2/10
OFFSHORE WE BUOY 0111      65                N/A     4/ 5   2/ 7
64NM E OF VA BCH 0150   67 63  180/ 12/ 12 1025.2R   3/ 5   2/ 5
DUCK PIER NC     0100   74 60  190/ 17/ 21 1023.5R
44100 DUCK FRF   0124      64                N/A     3/ 5
44056 DUCK FRF   0111      62                N/A     2/ 3
OREGON INLET NC  0100   74 79  170/ 16/ 20 1025.2R
HATTERAS NC      0100   74 76  170/ 12/ 17 1024.9R
DIAMOND SHLS NC  0150   74 76  170/ 16/ 19 1025.9R   3/ 5   2/ 7
CAPE LOOKOUT NC  0200   74     170/ 13/ 15 1025.5R
$$



USA.gov is the U.S. government's official web portal to all federal, state and local government web resources and services.